Merrill, WI

11:47 PM CDT on July 25, 2017 (GMT -0500)
Merrill Municipal

Weather History for KRRL - September, 2013

Change the Weather History Date:

Sunday, September 22, 2013

  Actual Average Record
Temperature  
Mean Temperature 44 °F -  
Max Temperature 59 °F 61 °F 94 °F (1937)
Min Temperature 28 °F 39 °F 18 °F (1974)
Degree Days  
Heating Degree Days 22    
Moisture  
Dew Point 38 °F    
Average Humidity 80    
Maximum Humidity 100    
Minimum Humidity 51    
Precipitation  
Precipitation 0.00 in - - ()
Sea Level Pressure  
Sea Level Pressure 30.04 in    
Wind  
Wind Speed 2 mph (SE)    
Max Wind Speed 7 mph    
Max Gust Speed -    
Visibility 8 miles    
Events Fog    
Averages and records for this station are not official NWS values.
T = Trace of Precipitation, MM = Missing Value Source: NWS Daily Summary

Daily Weather History Graph

Daily Weather History Graph

Search for Another Location

Airport or City:

Trip Planner

Search our weather history database for the weather conditions in past years. The results will help you decide how hot, cold, wet, or windy it might be!

Date:

Astronomy

Sep. 22, 2013 Rise Set
Actual Time 6:46 AM CDT 6:55 PM CDT
Civil Twilight 6:16 AM CDT 7:25 PM CDT
Nautical Twilight 5:42 AM CDT 7:59 PM CDT
Astronomical Twilight 5:06 AM CDT 8:35 PM CDT
Moon 8:34 PM CDT (9/22) 10:17 AM CDT (9/22)
Length of Visible Light 13h 08m
Length of Day
12h 09m
Waning Gibbous, 88% of the Moon is Illuminated
Sep 22
Waning Gibbous
Sep 26
Last Quarter
Oct 4
New
Oct 11
First Quarter
Oct 18
Full

Hourly Weather History & Observations

Time (CDT) Temp. Windchill Dew Point Humidity Pressure Visibility Wind Dir Wind Speed Gust Speed Precip Events Conditions
12:15 AM 35.1 °F - 34.7 °F 99% 30.00 in 10.0 mi Calm Calm - N/A   Clear
12:35 AM 34.5 °F - 33.8 °F 97% 30.00 in 10.0 mi Calm Calm - N/A   Clear
12:55 AM 34.3 °F - 33.8 °F 98% 30.00 in 5.0 mi Calm Calm - N/A   Clear
1:15 AM 32.7 °F - 32.4 °F 99% 30.00 in 10.0 mi Calm Calm - N/A   Scattered Clouds
1:35 AM 32.2 °F - 32.0 °F 99% 30.01 in 7.0 mi Calm Calm - N/A   Clear
1:55 AM 32.9 °F - 32.9 °F 100% 30.02 in 10.0 mi Calm Calm - N/A   Clear
2:15 AM 32.4 °F - 32.2 °F 99% 30.02 in 0.8 mi Calm Calm - N/A   Mist
2:35 AM 30.9 °F - 30.9 °F 100% 30.02 in 1.5 mi Calm Calm - N/A   Mist
2:55 AM 32.4 °F - 32.4 °F 100% 30.02 in 0.5 mi Calm Calm - N/A Fog Fog
3:15 AM 31.5 °F - 31.5 °F 100% 30.02 in 1.0 mi Calm Calm - N/A   Mist
3:35 AM 30.4 °F - 30.4 °F 100% 30.03 in 1.5 mi Calm Calm - N/A   Mist
3:55 AM 29.8 °F - 29.8 °F 100% 30.02 in 0.5 mi Calm Calm - N/A Fog Light Freezing Fog
4:15 AM 30.4 °F - 30.4 °F 100% 30.03 in 0.8 mi Calm Calm - N/A   Overcast
4:35 AM 30.0 °F - 30.0 °F 100% 30.03 in 1.2 mi Calm Calm - N/A   Mostly Cloudy
4:55 AM 30.7 °F - 30.7 °F 100% 30.03 in 4.0 mi Calm Calm - N/A   Mostly Cloudy
5:15 AM 31.3 °F - 31.3 °F 100% 30.04 in 10.0 mi Calm Calm - N/A   Overcast
5:35 AM 31.5 °F - 31.5 °F 100% 30.04 in 0.2 mi Calm Calm - N/A Fog Light Freezing Fog
5:55 AM 31.1 °F - 31.1 °F 100% 30.05 in 10.0 mi Calm Calm - N/A   Scattered Clouds
6:15 AM 28.8 °F - 28.4 °F 99% 30.05 in 7.0 mi Calm Calm - N/A   Clear
6:35 AM 29.1 °F - 28.9 °F 99% 30.05 in 0.8 mi Calm Calm - N/A   Mostly Cloudy
6:55 AM 29.1 °F - 29.1 °F 100% 30.05 in 0.2 mi Calm Calm - N/A Fog Light Freezing Fog
7:15 AM 30.2 °F - 30.2 °F 100% 30.07 in 0.2 mi Calm Calm - N/A Fog Light Freezing Fog
7:35 AM 31.5 °F - 31.3 °F 99% 30.07 in 10.0 mi Calm Calm - N/A   Scattered Clouds
7:55 AM 32.7 °F - 32.2 °F 98% 30.08 in 10.0 mi Calm Calm - N/A   Clear
8:15 AM 34.3 °F - 33.8 °F 98% 30.08 in 10.0 mi Calm Calm - N/A   Clear
8:35 AM 37.8 °F - 36.9 °F 97% 30.08 in 10.0 mi Calm Calm - N/A   Clear
8:55 AM 40.3 °F - 38.7 °F 94% 30.08 in 10.0 mi Calm Calm - N/A   Clear
9:15 AM 43.0 °F - 39.0 °F 86% 30.09 in 10.0 mi Calm Calm - N/A   Clear
9:35 AM 44.8 °F 43.3 °F 39.6 °F 82% 30.09 in 10.0 mi SSE 3.5 mph - N/A   Clear
9:55 AM 46.4 °F 45.2 °F 39.9 °F 78% 30.09 in 10.0 mi East 3.5 mph - N/A   Clear
10:15 AM 46.9 °F - 39.7 °F 76% 30.10 in 10.0 mi SSE 3.5 mph - N/A   Scattered Clouds
10:35 AM 49.5 °F - 39.6 °F 69% 30.10 in 10.0 mi East 4.6 mph - N/A   Scattered Clouds
10:55 AM 48.7 °F - 38.3 °F 67% 30.09 in 10.0 mi Calm Calm - N/A   Scattered Clouds
11:15 AM 51.4 °F - 39.4 °F 63% 30.09 in 10.0 mi East 5.8 mph - N/A   Scattered Clouds
11:35 AM 52.2 °F - 39.7 °F 63% 30.09 in 10.0 mi East 4.6 mph - N/A   Scattered Clouds
11:55 AM 51.3 °F - 38.7 °F 62% 30.08 in 10.0 mi Calm Calm - N/A   Scattered Clouds
12:15 PM 53.8 °F - 39.7 °F 59% 30.07 in 10.0 mi SE 4.6 mph - N/A   Scattered Clouds
12:35 PM 53.2 °F - 39.4 °F 59% 30.07 in 10.0 mi SSE 3.5 mph - N/A   Clear
12:55 PM 54.5 °F - 39.6 °F 57% 30.07 in 10.0 mi SE 3.5 mph - N/A   Clear
1:15 PM 54.9 °F - 39.4 °F 56% 30.06 in 10.0 mi SE 4.6 mph - N/A   Clear
1:35 PM 56.3 °F - 41.2 °F 57% 30.05 in 10.0 mi SE 4.6 mph - N/A   Clear
1:55 PM 56.7 °F - 40.1 °F 54% 30.05 in 10.0 mi SSW 4.6 mph - N/A   Clear
2:15 PM 57.2 °F - 41.0 °F 55% 30.04 in 10.0 mi South 5.8 mph - N/A   Clear
2:35 PM 58.1 °F - 41.4 °F 54% 30.03 in 10.0 mi South 4.6 mph - N/A   Clear
2:55 PM 58.3 °F - 40.8 °F 52% 30.03 in 10.0 mi SE 5.8 mph - N/A   Clear
3:15 PM 58.6 °F - 41.2 °F 52% 30.02 in 10.0 mi SE 5.8 mph - N/A   Clear
3:35 PM 59.0 °F - 41.0 °F 51% 30.02 in 10.0 mi SSE 5.8 mph - N/A   Clear
3:55 PM 59.2 °F - 41.4 °F 52% 30.01 in 10.0 mi South 4.6 mph - N/A   Clear
4:15 PM 59.4 °F - 41.5 °F 52% 30.01 in 10.0 mi South 5.8 mph - N/A   Clear
4:35 PM 59.4 °F - 41.9 °F 52% 30.00 in 10.0 mi South 5.8 mph - N/A   Clear
4:55 PM 59.2 °F - 41.7 °F 52% 30.00 in 10.0 mi SSE 6.9 mph - N/A   Clear
5:15 PM 59.0 °F - 41.5 °F 52% 30.00 in 10.0 mi SSE 4.6 mph - N/A   Clear
5:35 PM 58.3 °F - 41.2 °F 53% 30.01 in 10.0 mi SSE 3.5 mph - N/A   Clear
5:55 PM 57.6 °F - 41.4 °F 55% 30.00 in 10.0 mi SSE 4.6 mph - N/A   Clear
6:15 PM 56.5 °F - 41.2 °F 57% 30.01 in 10.0 mi SSE 5.8 mph - N/A   Clear
6:35 PM 54.3 °F - 42.1 °F 63% 30.01 in 10.0 mi SE 4.6 mph - N/A   Clear
6:55 PM 51.8 °F - 41.9 °F 69% 30.02 in 10.0 mi SE 4.6 mph - N/A   Clear
7:15 PM 50.0 °F - 41.9 °F 74% 30.02 in 10.0 mi SE 5.8 mph - N/A   Clear
7:35 PM 50.2 °F - 42.1 °F 74% 30.03 in 10.0 mi SE 5.8 mph - N/A   Clear
7:55 PM 49.5 °F - 41.9 °F 75% 30.04 in 10.0 mi SE 5.8 mph - N/A   Clear
8:15 PM 48.2 °F - 41.9 °F 79% 30.04 in 10.0 mi SE 5.8 mph - N/A   Clear
8:35 PM 47.8 °F - 41.9 °F 80% 30.04 in 10.0 mi SE 5.8 mph - N/A   Clear
8:55 PM 47.3 °F - 41.9 °F 82% 30.05 in 10.0 mi SE 5.8 mph - N/A   Clear
9:15 PM 46.9 °F - 41.7 °F 82% 30.05 in 10.0 mi SE 6.9 mph - N/A   Clear
9:35 PM 46.6 °F - 41.9 °F 84% 30.06 in 10.0 mi SSE 5.8 mph - N/A   Clear
9:55 PM 46.0 °F 43.1 °F 42.1 °F 86% 30.06 in 10.0 mi SSE 5.8 mph - N/A   Clear
10:15 PM 45.1 °F 41.4 °F 41.9 °F 88% 30.06 in 10.0 mi SE 6.9 mph - N/A   Clear
10:35 PM 44.8 °F 41.0 °F 41.7 °F 89% 30.06 in 10.0 mi SE 6.9 mph - N/A   Clear
10:55 PM 44.6 °F 42.2 °F 41.4 °F 88% 30.06 in 10.0 mi SSE 4.6 mph - N/A   Clear
11:15 PM 43.5 °F 40.1 °F 41.0 °F 91% 30.06 in 10.0 mi SE 5.8 mph - N/A   Clear
11:35 PM 43.2 °F 40.5 °F 40.6 °F 91% 30.07 in 10.0 mi SE 4.6 mph - N/A   Clear
11:55 PM 43.2 °F 40.5 °F 40.8 °F 91% 30.07 in 10.0 mi SE 4.6 mph - N/A   Clear